CAPE
853 1219 1127 1887 1953 1998 1722 1638 1621 1436 1142 822 588 402 275 270 478 581 418 169 450 693 508 665 703 880 842 529 712 822 591 765 1049
1367 1447 1546 1503 1787 1670 1756 1610 1600 1489 1254 1269 1076 830 721 692 847 687 764 717 692 689 295 773 505 591 71 412 564 713 1175 959 767
1236 1527 1677 1598 1788 1883 1756 1729 1512 1413 1550 1363 1335 1053 1240 1348 1095 1041 1149 532 292 846 995 1058 1462 1068 87 605 752 823 878 980 1011
1443 1624 1690 1673 1504 1840 1830 1772 1481 1338 1172 1231 1482 1363 1405 1210 1380 1383 1086 454 925 1012 1557 1604 1770 1871 1630 1031 1035 1213 1246 1122 1242
925 1421 1713 1599 1506 1365 1657 1710 1531 1323 1307 1611 1427 1679 1730 1412 1528 1612 1496 1244 1705 1737 1696 2022 1952 1877 1813 1643 1117 1303 1309 1397 1639
1561 1640 1614 1590 1457 1340 1200 1757 1715 1544 1584 1598 1676 1759 1828 1727 1704 1443 1678 1697 1714 1559 697 1844 1567 1493 1708 1779 1710 1487 1396 1367 1349
1541 1538 1478 1566 1426 1322 1319 1492 1778 1712 1767 1664 1903 1770 1930 1697 1722 1644 1971 1670 1157 725 629 503 535 748 881 998 932 1261 1053 1106 1084
1814 1764 1516 1419 1405 1422 1725 1913 2000 1544 1822 1628 2093 1791 2014 1691 1829 1901 2002 1160 684 530 740 550 448 363 299 234 249 371 412 245 229
1712 1635 1672 1551 1594 1938 2225 2176 2089 1827 1858 2093 2128 2314 2111 1976 1922 2057 1308 1013 905 656 615 386 317 331 219 170 85 37 68 108 41
1641 1790 1796 1886 1817 1986 2023 2090 2004 1851 2332 2618 2192 2295 2386 1951 1750 1584 1252 996 804 670 363 273 217 292 163 128 68 0 0 0 0
1700 1975 1864 1875 1888 2053 2155 2327 2256 2312 3074 2422 2316 2243 2300 1969 1751 1443 1320 1092 733 631 345 257 142 152 117 85 9 0 0 0 0
1677 1740 2030 1892 1968 2240 2446 2544 2698 2920 3155 2616 2482 2365 2128 2113 1744 1600 1473 983 645 439 220 112 67 47 64 22 0 0 0 0 0
2182 2156 2357 1871 2075 2438 2691 2618 2846 2951 2902 2732 2582 2386 2146 2005 1756 1486 1093 934 669 321 87 69 24 20 25 0 15 0 0 0 0
2157 2092 2471 2282 2170 2554 2584 2813 3017 2891 2953 2756 2682 2369 2172 1917 1543 1313 1061 862 596 282 140 159 56 14 14 0 9 5 5 0 0
2283 2827 2712 3016 2448 2860 2921 2936 3210 3189 3086 2968 2107 1892 1855 1508 1447 1090 767 678 482 226 157 81 44 20 23 32 4 7 0 0 0
2327 2912 2798 3140 3365 3394 3438 3319 3186 3047 2667 2346 2194 1587 1543 1343 1106 726 504 421 283 124 49 17 15 40 31 9 2 0 0 0 0
2414 2709 2549 2620 3321 3147 3187 3009 2763 2630 2593 2201 1871 1648 1319 1162 1010 724 580 222 129 42 0 0 0 1 14 4 5 2 15 0 0
2313 2281 2330 2779 2927 2797 2586 2168 2091 1948 2013 1840 1599 1464 1300 1083 840 589 409 220 10 0 0 0 0 0 0 1 2 3 0 0 0
2353 2518 2360 2253 2287 2328 2177 2016 1833 1560 1484 1405 1205 1070 1095 824 569 430 304 7 0 0 0 0 0 0 0 0 0 0 0 0 0
1350 1315 1523 1524 1095 924 928 1692 1823 1862 1450 1410 982 901 843 1143 640 336 38 33 29 5 0 0 0 0 0 0 0 0 0 0 0
CIN
-31 -40 -128 -95 -71 -99 -113 -76 -58 -39 -46 -75 -92 -101 -113 -94 -46 -33 -51 -52 -104 -67 -41 -33 -38 -59 -42 -35 -35 -32 -43 -36 -15
-67 -62 -87 -119 -88 -64 -87 -101 -51 -49 -66 -34 -42 -59 -72 -58 -43 -46 -30 -87 -62 -46 -160 -72 -66 -23 -44 -34 -27 -42 -21 -28 -36
-42 -79 -128 -137 -145 -135 -110 -82 -38 -63 -46 -49 -40 -46 -45 -26 -41 -27 -19 -25 -78 -41 -30 -43 -30 -17 -66 -48 -8 -31 -33 -26 -25
-71 -92 -144 -137 -97 -160 -104 -72 -81 -65 -85 -53 -27 -23 -26 -39 -31 -12 -51 -49 -37 -32 -21 -27 -12 -6 -5 -40 -42 -31 -21 -17 -16
-74 -115 -120 -101 -145 -107 -89 -67 -81 -95 -74 -43 -40 -7 -20 -21 -16 -44 -36 -64 -8 -20 -17 -14 -16 -10 -7 -13 -45 -37 -34 -23 -19
-52 -81 -113 -138 -137 -124 -124 -79 -68 -78 -62 -35 -23 -36 -20 -40 -35 -33 -15 -11 -3 -1 -46 -7 -17 -18 -10 -6 -10 -14 -27 -29 -17
-60 -100 -84 -129 -156 -170 -167 -107 -63 -57 -27 -47 -39 -24 -31 -33 -38 -34 -23 -8 -25 -70 -79 -59 -64 -45 -38 -14 -10 -4 -9 -6 -14
-59 -79 -96 -46 -164 -170 -177 -122 -96 -99 -38 -40 -34 -59 -36 -48 -33 -22 -12 -80 -134 -134 -97 -99 -113 -119 -145 -131 -110 -58 -31 -72 -74
-67 -92 -118 -196 -231 -206 -130 -113 -107 -94 -49 -25 -69 -44 -44 -56 -26 -3 -31 -60 -136 -133 -119 -136 -140 -157 -167 -179 -218 -220 -166 -143 -187
-91 -103 -115 -216 -232 -206 -170 -148 -117 -119 -81 -55 -52 -34 -34 -23 -88 -48 -131 -142 -136 -142 -201 -194 -201 -202 -221 -230 -261 0 0 0 0
-99 -89 -131 -209 -238 -216 -197 -143 -118 -93 -41 -25 -55 -64 -23 -86 -94 -128 -117 -39 -118 -173 -186 -201 -205 -252 -259 -245 -143 0 0 0 0
-70 -100 -122 -192 -237 -221 -186 -153 -107 -50 -10 -51 -70 -79 -81 -75 -101 -108 -37 -82 -166 -169 -186 -198 -220 -262 -62 -213 0 0 0 0 0
-86 -106 -117 -83 -179 -198 -176 -162 -117 -68 -22 -53 -67 -63 -71 -98 -55 -47 -59 -107 -125 -122 -25 -14 -163 -23 -7 0 -11 0 0 0 0
-133 -98 -74 -122 -152 -200 -178 -131 -98 -101 -72 -70 -73 -58 -61 -65 -53 -68 -106 -86 -92 -69 -13 0 -16 -5 -8 -2 -16 -24 -20 -9 0
-129 -110 -103 -68 -127 -119 -143 -110 -88 -71 -48 -41 -28 -39 -41 -24 -48 -60 -113 -99 -73 -25 -9 -4 -63 -1 -1 0 -2 -3 0 -3 0
-99 -97 -74 -78 -103 -121 -83 -73 -36 -55 -39 -50 -31 -58 -49 -60 -68 -52 -54 -46 -48 -55 -23 -20 0 -8 0 -14 -1 -1 0 -1 0
-73 -82 -107 -66 -29 -10 -24 -36 -34 -25 -45 -59 -68 -61 -74 -76 -74 -48 -49 -76 -67 -81 0 -12 0 -2 0 0 -3 0 -1 0 0
-57 -41 -47 -44 -25 -12 -15 -99 -129 -116 -67 -36 -73 -44 -42 -43 -53 -68 -67 -80 -210 0 0 0 0 0 0 -1 -4 0 0 0 0
-9 -17 -6 -34 -27 -23 -30 -52 -98 -142 -129 -110 -100 -55 -39 -47 -62 -77 -76 -70 0 0 0 0 0 0 0 0 0 0 0 0 0
-23 -27 -29 -43 -69 -60 -64 -1 -11 -12 -35 -28 -74 -68 -48 -1 -50 -106 -34 -34 -73 -38 0 0 0 0 0 0 0 0 0 0 0
Wind_Speed
48 46 34 31 36 38 33 26 24 22 18 14 12 11 11 12 8 7 12 10 7 9 9 5 6 3 6 6 7 11 13 15 10
47 51 49 32 39 43 34 26 22 22 18 14 12 8 8 8 9 8 11 14 11 12 11 8 8 17 nan 17 20 14 13 16 10
31 49 48 40 37 39 28 24 18 20 17 14 11 7 5 4 4 7 13 15 14 9 13 14 12 9 nan 14 8 19 16 16 14
38 37 42 35 32 41 24 19 19 18 15 12 7 5 6 5 4 9 13 11 13 17 11 5 7 6 6 6 13 10 18 19 16
25 34 40 31 30 32 29 15 17 20 14 12 6 7 7 7 8 9 7 7 9 13 17 6 4 6 7 10 12 17 21 19 14
19 35 39 30 25 26 22 18 15 14 12 12 12 11 11 10 9 9 9 11 10 9 10 13 5 7 6 10 13 9 8 15 13
22 32 36 25 21 21 15 14 17 14 14 12 12 13 13 11 10 10 10 11 10 9 7 6 5 3 3 2 2 5 6 6 6
23 26 29 24 22 17 18 19 17 15 13 12 13 15 15 9 12 12 12 11 10 11 10 8 7 7 12 7 9 9 9 9 10
24 35 35 30 24 24 17 17 14 12 10 11 14 14 13 13 17 18 16 16 16 16 16 15 14 17 16 14 nan nan nan 16 nan
43 39 38 32 29 28 23 16 17 17 13 12 12 13 12 15 16 17 19 22 23 26 24 23 21 21 21 19 nan nan nan nan nan
49 34 36 32 28 25 25 23 16 14 12 14 13 15 16 15 17 19 19 24 25 25 25 25 28 26 27 nan nan nan nan nan nan
42 33 31 32 30 28 26 24 15 13 17 20 20 20 21 23 22 19 8 14 17 14 16 18 nan nan nan nan nan nan nan nan nan
39 32 31 33 35 25 29 25 23 23 21 23 25 25 23 24 24 23 18 19 21 19 nan nan nan nan nan nan nan nan nan nan nan
43 40 25 31 35 27 27 28 29 25 25 28 30 31 24 23 18 25 27 23 23 24 23 30 nan nan nan nan nan nan nan nan nan
45 35 32 35 35 30 26 28 31 32 30 26 33 31 35 29 27 23 26 31 30 29 27 nan nan nan nan nan nan nan nan nan nan
40 37 33 39 36 31 29 29 32 35 33 37 39 36 35 33 33 29 27 30 33 29 nan nan nan nan nan nan nan nan nan nan nan
47 42 36 37 40 36 34 31 31 34 35 33 34 38 35 33 33 32 30 29 28 nan nan nan nan nan nan nan nan nan nan nan nan
45 45 46 43 42 38 40 36 38 38 34 35 37 38 38 34 34 34 30 30 nan nan nan nan nan nan nan nan nan nan nan nan nan
51 49 43 46 40 36 34 37 36 42 47 45 43 38 36 33 31 32 30 nan nan nan nan nan nan nan nan nan nan nan nan nan nan
45 44 46 43 39 41 37 37 46 41 41 44 45 46 40 33 30 32 nan nan nan nan nan nan nan nan nan nan nan nan nan nan nan
Wind_Direction
347 347 355 346 346 329 329 322 328 332 333 332 326 327 332 341 356 334 329 348 336 312 282 230 234 288 286 229 211 207 201 195 205
327 326 330 326 336 340 328 316 323 324 321 310 312 325 326 329 9 359 317 340 312 285 306 300 270 247 nan 202 184 190 200 205 207
292 327 330 331 324 339 325 310 307 306 301 302 317 321 339 311 351 311 309 318 349 6 322 287 250 267 nan 202 177 173 187 210 212
311 333 342 324 333 339 334 312 311 302 302 303 319 289 320 311 320 305 308 326 359 353 330 315 238 256 318 281 230 216 212 213 210
298 316 324 330 333 340 334 317 308 311 312 306 307 279 285 278 291 296 336 322 347 348 14 339 299 267 274 263 258 249 246 237 215
301 315 327 328 332 337 332 320 316 304 301 300 277 262 261 267 273 274 288 286 312 325 344 349 276 253 274 263 251 227 247 235 216
324 326 325 322 333 332 322 319 313 309 298 286 280 278 275 284 291 297 286 290 300 290 289 297 322 343 263 274 195 174 174 148 113
338 328 323 324 329 318 318 296 303 316 298 299 292 295 286 295 285 274 267 272 272 264 262 253 260 259 255 246 237 217 197 206 216
330 328 323 328 317 314 325 317 299 315 308 301 306 294 303 281 273 288 284 275 273 268 257 249 247 257 253 239 nan nan nan 230 nan
313 318 320 320 320 316 326 324 323 314 318 320 320 312 289 286 281 278 281 286 281 279 276 259 247 252 250 245 nan nan nan nan nan
299 303 311 310 313 311 310 318 307 302 299 311 319 303 287 287 294 301 294 293 280 288 275 274 265 260 257 nan nan nan nan nan nan
288 300 305 311 309 312 309 309 302 310 306 305 301 296 288 283 284 277 289 327 309 298 273 282 nan nan nan nan nan nan nan nan nan
266 279 298 306 307 304 310 308 305 300 307 302 304 290 289 292 301 294 333 312 304 296 nan nan nan nan nan nan nan nan nan nan nan
275 269 279 293 302 307 310 307 307 304 307 298 291 280 273 275 316 321 315 309 306 306 294 282 nan nan nan nan nan nan nan nan nan
264 273 281 281 290 299 302 303 294 294 295 284 281 284 306 323 305 298 298 300 298 289 295 nan nan nan nan nan nan nan nan nan nan
265 280 279 267 267 270 271 279 285 280 278 282 284 297 304 299 299 301 298 297 300 296 nan nan nan nan nan nan nan nan nan nan nan
258 261 264 265 266 264 262 259 261 273 277 280 283 289 290 292 292 291 295 292 299 nan nan nan nan nan nan nan nan nan nan nan nan
256 259 258 257 266 273 277 272 271 275 274 277 276 282 284 283 285 287 289 289 nan nan nan nan nan nan nan nan nan nan nan nan nan
246 252 259 260 261 264 261 261 265 276 282 280 280 274 273 278 281 279 285 nan nan nan nan nan nan nan nan nan nan nan nan nan nan
258 258 256 268 263 249 248 256 258 258 264 271 274 276 274 269 273 278 nan nan nan nan nan nan nan nan nan nan nan nan nan nan nan